Weather History for KMSS - December, 2012

Change the Weather History Date:

Sunday, December 30, 2012

  Actual Average Record
Temperature  
Mean Temperature 13 °F 17 °F  
Max Temperature 16 °F 26 °F 49 °F (1990)
Min Temperature 10 °F 8 °F -14 °F (1989)
Degree Days  
Heating Degree Days 52 48  
Month to date heating degree days 1138 1281  
Since 1 July heating degree days 2745 3050  
Cooling Degree Days 0 0  
Month to date cooling degree days 0  
Year to date cooling degree days 363  
Moisture  
Dew Point 7 °F    
Average Humidity 78    
Maximum Humidity 88    
Minimum Humidity 67    
Precipitation  
Precipitation T in 0.07 in 1.27 in (1990)
Month to date precipitation 3.82 2.36  
Year to date precipitation 30.30 34.89  
Sea Level Pressure  
Sea Level Pressure 29.96 in    
Wind  
Wind Speed 10 mph (West)    
Max Wind Speed 21 mph    
Max Gust Speed 26 mph    
Visibility 7 miles    
Events Snow    
T = Trace of Precipitation, MM = Missing Value Source: NWS Daily Summary

Daily Weather History Graph

Daily Weather History Graph

Search for Another Location

Airport or City:

Trip Planner

Search our weather history database for the weather conditions in past years. The results will help you decide how hot, cold, wet, or windy it might be!

Date:

Astronomy

Dec. 30, 2012 Rise Set
Actual Time 7:37 AM EST 4:27 PM EST
Civil Twilight 7:03 AM EST 5:00 PM EST
Nautical Twilight 6:26 AM EST 5:37 PM EST
Astronomical Twilight 5:50 AM EST 6:13 PM EST
Moon 7:02 PM EST (12/30) 8:38 AM EST (12/30)
Length of Visible Light 9h 57m
Length of Day
8h 49m
Waning Gibbous, 95% of the Moon is Illuminated
Dec 30
Waning Gibbous
Jan 4
Last Quarter
Jan 11
New
Jan 18
First Quarter
Jan 26
Full

Hourly Weather History & Observations

Time (EST) Temp. Windchill Dew Point Humidity Pressure Visibility Wind Dir Wind Speed Gust Speed Precip Events Conditions
12:02 AM 15.8 °F 5.1 °F 12.2 °F 86% 29.76 in 3.0 mi WNW 8.1 mph - 0.00 in Snow Light Snow
12:53 AM 15.1 °F 4.2 °F 10.9 °F 84% 29.79 in 9.0 mi WNW 8.1 mph - 0.00 in Snow Light Snow
1:17 AM 15.8 °F 6.1 °F 10.4 °F 79% 29.77 in 1.8 mi WNW 6.9 mph - 0.00 in Snow Light Snow
1:22 AM 15.8 °F 5.1 °F 10.4 °F 79% 29.77 in 1.0 mi West 8.1 mph - 0.00 in Snow Light Snow
1:33 AM 15.8 °F 4.2 °F 10.4 °F 79% 29.77 in 0.8 mi West 9.2 mph - 0.00 in Snow Light Snow
1:41 AM 14.0 °F 2.0 °F 10.4 °F 86% 29.78 in 1.2 mi West 9.2 mph - 0.00 in Snow Light Snow
1:53 AM 14.0 °F 3.9 °F 10.9 °F 88% 29.81 in 1.5 mi West 6.9 mph - 0.00 in Snow Light Snow
2:31 AM 14.0 °F 2.9 °F 10.4 °F 86% 29.80 in 1.2 mi West 8.1 mph - 0.00 in Snow Light Snow
2:40 AM 14.0 °F 3.9 °F 10.4 °F 86% 29.80 in 1.8 mi West 6.9 mph - 0.00 in Snow Light Snow
2:53 AM 14.0 °F 3.9 °F 10.0 °F 84% 29.83 in 1.8 mi WNW 6.9 mph - 0.00 in Snow Light Snow
3:35 AM 12.2 °F 0.7 °F 10.4 °F 92% 29.81 in 3.0 mi West 8.1 mph - 0.00 in Snow Light Snow
3:50 AM 12.2 °F -1.0 °F 8.6 °F 85% 29.81 in 4.0 mi West 10.4 mph - 0.00 in Snow Light Snow
3:53 AM 12.9 °F 0.7 °F 9.0 °F 84% 29.84 in 6.0 mi West 9.2 mph - 0.00 in Snow Light Snow
4:53 AM 12.9 °F -0.9 °F 8.1 °F 81% 29.85 in 7.0 mi West 11.5 mph - 0.00 in Snow Light Snow
5:53 AM 12.0 °F 1.5 °F 7.0 °F 80% 29.88 in 4.0 mi West 6.9 mph - 0.00 in Snow Light Snow
6:07 AM 12.2 °F -1.0 °F 8.6 °F 85% 29.86 in 2.0 mi West 10.4 mph - 0.00 in Snow Light Snow
6:17 AM 12.2 °F -3.1 °F 6.8 °F 79% 29.86 in 3.0 mi WNW 13.8 mph 18.4 mph 0.00 in Snow Light Snow
6:30 AM 12.2 °F -1.0 °F 6.8 °F 79% 29.87 in 9.0 mi WNW 10.4 mph 24.2 mph 0.00 in   Overcast
6:53 AM 12.0 °F -2.0 °F 6.1 °F 77% 29.91 in 10.0 mi WNW 11.5 mph - 0.00 in   Overcast
7:53 AM 10.9 °F -3.4 °F 6.1 °F 81% 29.96 in 10.0 mi West 11.5 mph - N/A   Overcast
8:53 AM 10.0 °F -5.9 °F 5.0 °F 80% 29.99 in 10.0 mi West 13.8 mph 20.7 mph N/A   Overcast
9:53 AM 10.0 °F -5.2 °F 3.9 °F 76% 30.03 in 10.0 mi West 12.7 mph - N/A   Overcast
10:53 AM 10.0 °F -5.2 °F 3.9 °F 76% 30.06 in 10.0 mi West 12.7 mph 20.7 mph N/A   Overcast
11:53 AM 10.0 °F -5.9 °F 3.0 °F 73% 30.06 in 8.0 mi West 13.8 mph - N/A   Overcast
12:53 PM 10.0 °F -7.1 °F 3.0 °F 73% 30.05 in 10.0 mi West 16.1 mph - 0.00 in   Overcast
1:53 PM 12.0 °F -4.5 °F 3.9 °F 70% 30.06 in 10.0 mi West 16.1 mph 20.7 mph N/A   Overcast
2:53 PM 12.0 °F -4.0 °F 3.0 °F 67% 30.09 in 10.0 mi West 15.0 mph 24.2 mph N/A   Scattered Clouds
3:27 PM 12.2 °F -3.1 °F 3.2 °F 67% 30.08 in 10.0 mi WSW 13.8 mph 20.7 mph N/A   Mostly Cloudy
3:46 PM 10.4 °F -4.1 °F 3.2 °F 73% 30.08 in 10.0 mi West 11.5 mph - N/A   Scattered Clouds
3:53 PM 10.9 °F -4.1 °F 3.0 °F 70% 30.12 in 10.0 mi West 12.7 mph - N/A   Partly Cloudy
4:53 PM 10.9 °F -1.8 °F 3.0 °F 70% 30.14 in 10.0 mi WSW 9.2 mph - N/A   Clear
5:53 PM 12.0 °F -3.4 °F 3.9 °F 70% 30.18 in 10.0 mi West 13.8 mph 20.7 mph N/A   Clear
6:53 PM 12.9 °F -1.6 °F 5.0 °F 71% 30.20 in 10.0 mi West 12.7 mph 20.7 mph N/A   Clear
7:53 PM 14.0 °F 2.9 °F 7.0 °F 74% 30.20 in 10.0 mi West 8.1 mph - N/A   Overcast
8:53 PM 12.0 °F 0.5 °F 7.0 °F 80% 30.19 in 10.0 mi SSW 8.1 mph - N/A   Overcast
9:53 PM 12.9 °F 2.6 °F 8.1 °F 81% 30.19 in 10.0 mi SW 6.9 mph - N/A   Overcast
10:53 PM 12.9 °F 5.2 °F 8.1 °F 81% 30.19 in 10.0 mi SSW 4.6 mph - N/A   Overcast
11:53 PM 14.0 °F - 9.0 °F 80% 30.16 in 10.0 mi Calm Calm - N/A   Overcast